Location: Pedholt
(56.0260°N, 10.2097°E)
Time: 06:53:55
(UTC+00:00)

Landsat 4 - Pass Details

Date: 14 July 2020
Orbit: 506 x 522 km, 98.2° (Epoch: 07 August)

Event Time Altitude Azimuth Distance (km) Brightness Sun altitude
Rises 00:01:58 0° 14° (NNE) 2,661 9.4 -11.9°
Reaches altitude 10° 00:04:05 10° 12° (NNE) 1,770 8.0 -11.9°
Maximum altitude 00:07:52 67° 289° (WNW) 571 3.9 -11.8°
Enters shadow 00:10:43 17° 210° (SSW) 1,382 5.3 -11.7°
